Campeche, Mexico

4:27 AM EST on April 25, 2017 (GMT -0500)
Campeche

Weather History for MMCP - March, 2013

Change the Weather History Date:

Saturday, March 2, 2013

  Actual Average Record
Temperature  
Mean Temperature 70 °F -  
Max Temperature 76 °F 87 °F 96 °F (2014)
Min Temperature 64 °F 68 °F 62 °F (2009)
Cooling Degree Days 5    
Growing Degree Days 20 (Base 50)    
Moisture  
Dew Point 54 °F    
Average Humidity 55    
Maximum Humidity 73    
Minimum Humidity 29    
Precipitation  
Precipitation 0.00 in - - ()
Sea Level Pressure  
Sea Level Pressure 30.20 in    
Wind  
Wind Speed 9 mph ()    
Max Wind Speed 16 mph    
Max Gust Speed 23 mph    
Visibility 6.4 miles    
Events      
Averages and records for this station are not official NWS values.
T = Trace of Precipitation, MM = Missing Value Source: Averaged Metar Reports

Daily Weather History Graph

Daily Weather History Graph

Search for Another Location

Airport or City:

Trip Planner

Search our weather history database for the weather conditions in past years. The results will help you decide how hot, cold, wet, or windy it might be!

Date:

Astronomy

Mar. 02, 2013 Rise Set
Actual Time 6:20 AM CST 6:07 PM CST
Civil Twilight 5:58 AM CST 6:29 PM CST
Nautical Twilight 5:33 AM CST 6:55 PM CST
Astronomical Twilight 5:07 AM CST 7:20 PM CST
Moon 10:57 PM CST (3/2) 9:35 AM CST (3/2)
Length of Visible Light 12h 31m
Length of Day
11h 46m
Waning Gibbous, 74% of the Moon is Illuminated
Mar 2
Waning Gibbous
Mar 4
Last Quarter
Mar 11
New
Mar 19
First Quarter
Mar 27
Full

Hourly Weather History & Observations

Time (CST) Temp. Dew Point Humidity Pressure Visibility Wind Dir Wind Speed Gust Speed Precip Events Conditions
3:00 AM 68 °F 58 °F 63% 30.12 in 4 mi North 8.9 mph - -   Overcast
5:42 AM 66.2 °F 55.4 °F 68% 30.15 in 7.0 mi North 11.5 mph - N/A   Mostly Cloudy
5:49 AM 66.2 °F 55.4 °F 68% 30.15 in 7.0 mi North 11.5 mph 23.0 mph N/A   Mostly Cloudy
5:50 AM 68 °F 54 °F 52% 30.15 in 4 mi North 11.2 mph - -   Overcast
5:53 AM 66.2 °F 55.4 °F 68% 30.15 in 7.0 mi North 11.5 mph 23.0 mph N/A   Mostly Cloudy
5:55 AM 66.2 °F 55.4 °F 68% 30.15 in 7.0 mi North 11.5 mph 23.0 mph N/A   Mostly Cloudy
6:42 AM 66.2 °F 55.4 °F 68% 30.17 in 7.0 mi North 11.5 mph 23.0 mph N/A   Overcast
7:41 AM 68.0 °F 55.4 °F 64% 30.20 in 7.0 mi North 11.5 mph 23.0 mph N/A   Overcast
8:42 AM 68.0 °F 55.4 °F 64% 30.22 in 7.0 mi North 11.5 mph 23.0 mph N/A   Overcast
8:50 AM 70 °F 56 °F 52% 30.23 in 6 mi North 11.2 mph - -   Overcast
9:42 AM 69.8 °F 53.6 °F 56% 30.24 in 7.0 mi North 11.5 mph 23.0 mph N/A   Overcast
10:42 AM 71.6 °F 53.6 °F 53% 30.24 in 7.0 mi North 11.5 mph 23.0 mph N/A   Overcast
11:42 AM 71.6 °F 53.6 °F 53% 30.23 in 7.0 mi North 11.5 mph 23.0 mph N/A   Mostly Cloudy
11:50 AM 75 °F 49 °F 29% 30.22 in 6 mi NNW 15.7 mph - -   Mostly Cloudy
12:42 PM 71.6 °F 50.0 °F 46% 30.20 in 7.0 mi NNW 11.5 mph 23.0 mph N/A   Mostly Cloudy
1:48 PM 71.6 °F 51.8 °F 50% 30.19 in 7.0 mi North 11.5 mph 23.0 mph N/A   Mostly Cloudy
2:44 PM 71.6 °F 51.8 °F 50% 30.20 in 7.0 mi North 11.5 mph 23.0 mph N/A   Mostly Cloudy
2:48 PM 75 °F 53 °F 36% 30.19 in 6 mi NNW 6.7 mph - -   Mostly Cloudy
3:54 PM 71.6 °F 48.2 °F 43% 30.19 in 7.0 mi NNW 11.5 mph 23.0 mph N/A   Mostly Cloudy
4:45 PM 71.6 °F 48.2 °F 43% 30.19 in 7.0 mi NW 11.5 mph 23.0 mph N/A   Mostly Cloudy
5:48 PM 71 °F 53 °F 43% 30.21 in 6 mi West 6.7 mph - -   Partly Cloudy
5:49 PM 69.8 °F 50.0 °F 49% 30.21 in 7.0 mi West 11.5 mph 23.0 mph N/A   Scattered Clouds
7:00 PM 69.8 °F 51.8 °F 53% 30.22 in 7.0 mi NNW 8.1 mph - N/A   Scattered Clouds
7:44 PM 69.8 °F 51.8 °F 53% 30.23 in 7.0 mi NNW 9.2 mph - N/A   Partly Cloudy
8:50 PM 71 °F 56 °F 49% 30.24 in 2 mi West 4.5 mph - -   Partly Cloudy
8:51 PM 71.6 °F 53.6 °F 53% 30.24 in 7.0 mi WNW 9.2 mph - N/A   Partly Cloudy
10:43 PM 68.0 °F 59.0 °F 73% 30.24 in 7.0 mi West 5.8 mph - N/A   Partly Cloudy
11:45 PM 70 °F 61 °F 65% 30.22 in 4 mi WSW 2.2 mph - -